CW4279 Weather Reports


time (UTC)temp
C
wind
direction
speed
KPH
gust
KPH
rain 1hr
cm
rain 24hr
cm
rain mn
cm
humidity
%
barometer
mb
20260504050427 13 149 1.6 3.2 0.00 0.00 0.00 46 997.9
20260504045924 12 154 3.2 3.2 0.00 0.00 0.00 46 998.1
20260504045420 12 150 1.6 3.2 0.00 0.00 0.00 47 998.1
20260504044916 12 145 1.6 3.2 0.00 0.00 0.00 47 998.4
20260504044414 12 157 3.2 3.2 0.00 0.00 0.00 46 998.4
20260504043911 12 145 1.6 3.2 0.00 0.00 0.00 46 998.3
20260504043408 12 147 1.6 3.2 0.00 0.00 0.00 46 998.7
20260504042906 12 150 1.6 3.2 0.00 0.00 0.00 46 998.7
20260504042402 12 139 0.0 3.2 0.00 0.00 0.00 46 998.9
20260504041858 12 140 1.6 3.2 0.00 0.00 0.00 45 998.8
20260504041354 12 154 1.6 3.2 0.00 0.00 0.00 45 999.0
20260504040850 12 147 1.6 3.2 0.00 0.00 0.00 45 999.2
20260504040348 13 139 1.6 3.2 0.00 0.00 0.00 44 999.1
20260504035844 12 142 1.6 3.2 0.00 0.00 0.00 44 999.3
20260504035342 12 134 3.2 4.8 0.00 0.00 0.00 45 999.6
20260504034838 12 140 1.6 1.6 0.00 0.00 0.00 46 999.8
20260504034336 12 139 0.0 1.6 0.00 0.00 0.00 46 999.7
20260504033833 12 139 1.6 1.6 0.00 0.00 0.00 46 999.6
20260504033331 12 138 0.0 1.6 0.00 0.00 0.00 46 999.9
20260504032827 12 139 0.0 1.6 0.00 0.00 0.00 45 1000.1
20260504032325 12 138 0.0 1.6 0.00 0.00 0.00 47 1000.2
20260504031821 12 139 0.0 1.6 0.00 0.00 0.00 47 1000.4
20260504031318 12 137 0.0 1.6 0.00 0.00 0.00 44 1000.2
20260504030814 12 138 0.0 1.6 0.00 0.00 0.00 45 1000.5
20260504030312 12 137 0.0 0.0 0.00 0.00 0.00 44 1000.6
20260504025808 12 137 0.0 0.0 0.00 0.00 0.00 44 1000.7
20260504025306 12 137 0.0 0.0 0.00 0.00 0.00 43 1000.8
20260504024802 12 137 0.0 0.0 0.00 0.00 0.00 43 1000.8
20260504024258 12 137 0.0 0.0 0.00 0.00 0.00 42 1000.7
20260504023755 13 137 0.0 0.0 0.00 0.00 0.00 43 1000.7
20260504023251 13 137 0.0 0.0 0.00 0.00 0.00 42 1000.8
20260504022748 13 137 0.0 0.0 0.00 0.00 0.00 41 1000.8
20260504022244 13 137 0.0 0.0 0.00 0.00 0.00 40 1000.7
20260504021741 14 137 0.0 1.6 0.00 0.00 0.00 40 1000.7
20260504021238 14 138 0.0 1.6 0.00 0.00 0.00 40 1000.9
20260504020735 15 138 0.0 0.0 0.00 0.00 0.00 39 1001.2
20260504020232 15 138 0.0 3.2 0.00 0.00 0.00 39 1000.9
20260504015728 15 130 1.6 1.6 0.00 0.00 0.00 38 1001.1
20260504015225 15 129 0.0 1.6 0.00 0.00 0.00 36 1001.2
20260504014720 15 132 0.0 1.6 0.00 0.00 0.00 37 1000.9
20260504014217 16 132 0.0 3.2 0.00 0.00 0.00 36 1000.9
20260504013715 16 136 0.0 1.6 0.00 0.00 0.00 36 1001.1
20260504013212 16 132 0.0 0.0 0.00 0.00 0.00 35 1001.1
20260504012708 16 132 0.0 1.6 0.00 0.00 0.00 35 1001.2
20260504012207 16 135 0.0 1.6 0.00 0.00 0.00 35 1000.8
20260504011703 16 134 0.0 1.6 0.00 0.00 0.00 35 1000.8
20260504011200 16 127 0.0 0.0 0.00 0.00 0.00 34 1000.7
20260504010656 17 127 0.0 0.0 0.00 0.00 0.00 33 1000.8
20260504010151 17 128 0.0 0.0 0.00 0.00 0.00 33 1000.9
20260504005649 17 130 0.0 1.6 0.00 0.00 0.00 32 1000.7
20260504005145 17 121 0.0 1.6 0.00 0.00 0.00 33 1001.3
20260504004644 18 144 1.6 1.6 0.00 0.00 0.00 31 1001.1
20260504004140 18 132 0.0 1.6 0.00 0.00 0.00 30 1001.3
20260504003637 18 120 0.0 1.6 0.00 0.00 0.00 29 1001.2
20260504003133 18 105 1.6 4.8 0.00 0.00 0.00 30 1001.1
20260504002630 18 198 1.6 4.8 0.00 0.00 0.00 29 1001.3
20260504002128 18 10 4.8 8.0 0.00 0.00 0.00 29 1001.5
20260504001626 19 134 0.0 3.2 0.00 0.00 0.00 29 1001.1
20260504001121 19 120 0.0 4.8 0.00 0.00 0.00 29 1001.3
20260504000619 19 126 1.6 3.2 0.00 0.00 0.00 28 1001.2
20260504000116 20 96 3.2 3.2 0.00 0.00 0.00 29 1001.5
20260503235614 19 159 1.6 4.8 0.00 0.00 0.00 29 1001.6
20260503235110 19 154 0.0 1.6 0.00 0.00 0.00 29 1001.5
20260503234609 19 136 1.6 1.6 0.00 0.00 0.00 28 1001.5
20260503234106 19 97 3.2 3.2 0.00 0.00 0.00 27 1001.7
20260503233603 20 105 0.0 3.2 0.00 0.00 0.00 27 1001.5
20260503233059 20 104 1.6 3.2 0.00 0.00 0.00 26 1001.5
20260503232556 21 150 1.6 4.8 0.00 0.00 0.00 26 1001.6
20260503232053 21 107 3.2 3.2 0.00 0.00 0.00 27 1001.9
20260503231551 21 119 1.6 1.6 0.00 0.00 0.00 27 1001.5
20260503231047 21 152 1.6 3.2 0.00 0.00 0.00 28 1001.6
20260503230544 21 67 3.2 8.0 0.00 0.00 0.00 25 1001.6
20260503230042 21 149 1.6 9.7 0.00 0.00 0.00 26 1001.7
20260503225538 21 121 0.0 4.8 0.00 0.00 0.00 24 1001.8
20260503225033 21 163 1.6 3.2 0.00 0.00 0.00 25 1001.8
20260503224531 21 157 4.8 8.0 0.00 0.00 0.00 24 1002.0
20260503224028 21 143 0.0 3.2 0.00 0.00 0.00 26 1001.9
20260503223526 21 159 8.0 12.9 0.00 0.00 0.00 26 1001.8
20260503223021 22 125 1.6 3.2 0.00 0.00 0.00 26 1001.9
20260503222520 21 47 3.2 4.8 0.00 0.00 0.00 24 1002.2
20260503222018 21 67 4.8 11.3 0.00 0.00 0.00 26 1001.9
20260503221516 21 148 1.6 9.7 0.00 0.00 0.00 25 1001.9
20260503221013 21 151 1.6 4.8 0.00 0.00 0.00 24 1002.1
20260503220509 21 206 3.2 8.0 0.00 0.00 0.00 25 1002.1
20260503220006 21 51 3.2 4.8 0.00 0.00 0.00 24 1002.2
20260503215503 21 144 4.8 8.0 0.00 0.00 0.00 24 1002.0
20260503215000 21 140 1.6 1.6 0.00 0.00 0.00 25 1002.2
20260503214458 21 24 4.8 8.0 0.00 0.00 0.00 25 1002.3
20260503213955 21 156 1.6 1.6 0.00 0.00 0.00 23 1002.2
20260503213453 21 141 3.2 11.3 0.00 0.00 0.00 23 1002.5
20260503212949 21 118 1.6 12.9 0.00 0.00 0.00 23 1002.6
20260503212447 21 166 1.6 4.8 0.00 0.00 0.00 24 1002.5
20260503211944 21 77 4.8 9.7 0.00 0.00 0.00 23 1002.5
20260503211441 21 43 6.4 9.7 0.00 0.00 0.00 24 1002.7
20260503210936 21 144 3.2 4.8 0.00 0.00 0.00 25 1002.7
20260503210433 21 197 4.8 8.0 0.00 0.00 0.00 23 1002.7
20260503205928 21 24 3.2 4.8 0.00 0.00 0.00 24 1002.9
20260503205425 20 268 9.7 14.5 0.00 0.00 0.00 23 1002.8
20260503204921 21 306 3.2 8.0 0.00 0.00 0.00 24 1002.8
20260503204419 21 146 1.6 12.9 0.00 0.00 0.00 22 1003.0
20260503203916 20 315 6.4 9.7 0.00 0.00 0.00 23 1003.1
20260503203413 21 277 8.0 11.3 0.00 0.00 0.00 22 1002.9
20260503202910 21 83 3.2 4.8 0.00 0.00 0.00 24 1002.9
20260503202408 21 269 4.8 9.7 0.00 0.00 0.00 23 1002.9
20260503201906 21 55 3.2 11.3 0.00 0.00 0.00 23 1003.0
20260503201403 20 325 8.0 16.1 0.00 0.00 0.00 22 1003.0
20260503200901 21 118 3.2 12.9 0.00 0.00 0.00 22 1003.0
20260503200356 21 343 6.4 8.0 0.00 0.00 0.00 22 1003.1
20260503195854 21 305 8.0 11.3 0.00 0.00 0.00 20 1003.2
20260503195350 21 103 3.2 8.0 0.00 0.00 0.00 21 1002.8
20260503194847 21 45 4.8 8.0 0.00 0.00 0.00 20 1003.1
20260503194343 21 54 3.2 9.7 0.00 0.00 0.00 19 1003.2
20260503193840 20 141 1.6 11.3 0.00 0.00 0.00 21 1003.1
20260503193336 20 5 3.2 4.8 0.00 0.00 0.00 24 1003.3
20260503192832 21 87 3.2 9.7 0.00 0.00 0.00 22 1003.4
20260503192327 21 54 6.4 11.3 0.00 0.00 0.00 22 1003.2
20260503191824 21 64 8.0 12.9 0.00 0.00 0.00 23 1003.2
20260503191321 21 333 3.2 4.8 0.00 0.00 0.00 24 1003.3
20260503190818 20 228 1.6 9.7 0.00 0.00 0.00 24 1003.5
20260503190315 21 87 3.2 11.3 0.00 0.00 0.00 23 1003.5
20260503185812 20 60 4.8 9.7 0.00 0.00 0.00 27 1003.3
20260503185307 20 15 9.7 16.1 0.00 0.00 0.00 25 1003.6
20260503184802 20 69 4.8 14.5 0.00 0.00 0.00 27 1003.6
20260503184258 19 340 1.6 11.3 0.00 0.00 0.00 28 1003.6
20260503183754 20 301 8.0 12.9 0.00 0.00 0.00 28 1003.4
20260503183252 20 2 6.4 11.3 0.00 0.00 0.00 27 1003.6
20260503182749 20 33 6.4 11.3 0.00 0.00 0.00 29 1003.5
20260503182248 20 231 8.0 11.3 0.00 0.00 0.00 29 1003.6
20260503181744 20 173 6.4 14.5 0.00 0.00 0.00 29 1003.5
20260503181242 20 84 3.2 12.9 0.00 0.00 0.00 29 1003.8
20260503180738 20 93 6.4 14.5 0.00 0.00 0.00 30 1003.9
20260503180236 20 18 6.4 12.9 0.00 0.00 0.00 33 1003.6
20260503175732 20 41 9.7 12.9 0.00 0.00 0.00 34 1003.7
20260503175231 20 130 1.6 9.7 0.00 0.00 0.00 34 1003.8
20260503174726 21 142 3.2 11.3 0.00 0.00 0.00 34 1003.8
20260503174224 20 206 3.2 9.7 0.00 0.00 0.00 37 1003.7
20260503173719 20 280 8.0 14.5 0.00 0.00 0.00 37 1003.8
20260503173215 20 307 3.2 9.7 0.00 0.00 0.00 36 1003.8
20260503172712 20 310 14.5 24.1 0.00 0.00 0.00 36 1003.7
20260503172209 20 226 8.0 11.3 0.00 0.00 0.00 34 1003.8
20260503171705 20 71 1.6 4.8 0.00 0.00 0.00 36 1004.0
20260503171203 20 20 6.4 12.9 0.00 0.00 0.00 34 1004.0
20260503170700 20 218 1.6 9.7 0.00 0.00 0.00 35 1004.1
20260503170157 20 7 4.8 11.3 0.00 0.00 0.00 36 1004.2
20260503160118 19 70 4.8 8.0 0.00 0.00 0.00 42 1003.9
20260503150543 17 55 3.2 4.8 0.00 0.00 0.00 46 1003.7
20260503130933 12 150 0.0 1.6 0.00 0.00 0.00 60 1003.3
20260503130431 12 148 0.0 3.2 0.00 0.00 0.00 61 1003.5
20260503110823 9 144 0.0 1.6 0.00 0.00 0.00 67 1002.5
20260503110320 9 144 0.0 1.6 0.00 0.00 0.00 67 1002.3
20260503100246 9 154 0.0 1.6 0.00 0.00 0.00 66 1002.5
20260503090206 11 135 1.6 3.2 0.00 0.00 0.00 59 1002.8
20260503081636 11 139 1.6 3.2 0.00 0.00 0.00 57 1003.0
20260503081133 11 140 1.6 3.2 0.00 0.00 0.00 57 1003.3
20260503080629 12 144 1.6 1.6 0.00 0.00 0.00 57 1003.3
20260503080126 12 156 1.6 3.2 0.00 0.00 0.00 56 1003.3
20260503072603 12 100 0.0 0.0 0.00 0.00 0.00 55 1004.1
20260503072100 12 99 0.0 1.6 0.00 0.00 0.00 55 1003.8
20260503071556 12 104 0.0 1.6 0.00 0.00 0.00 56 1004.1
20260503071053 12 142 0.0 0.0 0.00 0.00 0.00 57 1004.1
20260503070550 12 142 0.0 0.0 0.00 0.00 0.00 56 1003.8